"Pseudo-MPEC" for P119pJk

Created 2020 Nov 27 18:07:17 UT using Find_Orb

Click here for an explanation of pseudo-MPECs

 
 Astrometry: 
     P119pJk  C2020 10 17.46920 05 45 23.33 +01 29 48.6    ~BGH7       VNEOCPG96
     P119pJk  C2020 11 10Y[d?OvquQ?gZK4PePa=CR/@(;0.]tR=/p\8l-3wLTXxBb=L$Zo05F51
     P119pJk  C2020 11 10%P=t:%XhWOx'e6Mr$Ky2]w/En[IN+YcdcZ^$_plpEDQ05%]9P\%3F51
     P119pJk  C2020 11 10342'J6UUIs?3-Wkm(7=M\o8KNOd$1CkDXWK(mZ7=-V*;gObofYwNF51
     P119pJk KC2020 11 11.34232105 41 35.98 -00 04 34.3    ~BB9M 20.02GVNEOCPI52
     P119pJk KC2020 11 11.35348405 41 35.78 -00 04 37.1    ~BB9M 20.31GVNEOCPI52
     P119pJk KC2020 11 11.37297205 41 35.47 -00 04 40.6    ~BB9M 19.83GVNEOCPI52
     P119pJk ^C2020 11 11.51275505 41 33.214-00 05 08.83   ~BBJ7 20.28GVNEOCP568
     P119pJk ^C2020 11 11.51393205 41 33.191-00 05 09.03   ~BBJ7 20.29GVNEOCP568
     P119pJk ^C2020 11 11.51511805 41 33.176-00 05 09.31   ~BBJ7 20.34GVNEOCP568
     P119pJk ^C2020 11 11.51629605 41 33.156-00 05 09.60   ~BBJ7 20.34GVNEOCP568
     P119pJk ^C2020 11 11.51747505 41 33.130-00 05 09.80   ~BBJ7 20.27GVNEOCP568
     P119pJk ^C2020 11 11.51865205 41 33.109-00 05 09.99   ~BBJ7 20.31GVNEOCP568
     P119pJk KC2020 11 11iMVkZO5%MG7RO*2@!tP_5=4QgU0dW9-_oKP*T?c'fYo+E5`?e.]4N51
     P119pJk KC2020 11 11_JiJh!=u`2FjpT0Z[PZnAstrometryF?95Z3UZuln[8_^9YShYC9N51
     P119pJk KC2020 11 113-sH^-^M/M-B\gN5SjMlN@HaM6@KO-XUp0qT][\D#eum(7(Nfv'*N51
     P119pJk KC2020 11 11gUp/3se*]68tqtOm]$`]aw?5=v2EyG[IVHBuR%fEy]sqffTELl,JN51
     P119pJk KC2020 11 11eAAa-fA`g0x%Rs12_VewP]=pkbC]HG#jhdw/,8PbHNATHSfa/,89N51
     P119pJk KC2020 11 11C004L-Lu.O?Pmp_S.6pV71@jQ\T7NmZ^Wo1u`LJ%#quK^,A:KX%kN51
     P119pJk KC2020 11 11I1MWHJ):\R%'e'QD^@M$anr2'RW*c_a1;enU![V']2EA5?ubw\1IN51
     P119pJk KC2020 11 11Hl!Zvd?7PZVxiXSJ4Z%Km$l\CAxtXcCUy`+=YvG9SF)1y-y3fJZjN51
     P119pJk KC2020 11 11pg7;ao$_P4^j?UJ#=o#FZV.Yit]J?Sf,D[Hn`aDNEhmT8cWV2ZVFN51
     P119pJk KC2020 11 116d%Z9b*XoJ:`f.M,NLtA'g_8CKMSrcww1:[i/`-#FNeF!Kt(Fo/gN51
     P119pJk KC2020 11 11.GdZt=R8[)iFCKi-1Qd1%PW!+.!qhcsRCGJu9_$),Tuc?LMPQWa2N51
     P119pJk KC2020 11 113lt4FFW/?cR@3'Zs,cYb=TK6'xf20MxCsM1?shOl,[2sclFIU%1LN51
     P119pJk |C2020 11 12Z6;h('x/A\-Su+L[@^U)+!,`'=g;S)VBf7tOq2$Ih^xs0Z9I5wTjH06
     P119pJk |C2020 11 12)nK!5f.?v*_4%4+udxhHv;3V/\E`jjC^;xN(-m$7,lptxkuC=d@3H06
     P119pJk  C2020 11 14.42694105 40 43.72 -00 14 46.2    ~BEBM 20.81GVNEOCPI52
     P119pJk  C2020 11 14.43930205 40 43.40 -00 14 48.2    ~BEBM 20.78GVNEOCPI52
     P119pJk  C2020 11 14.45138605 40 43.17 -00 14 50.5    ~BEBM       VNEOCPI52
     P119pJk  C2020 11 14.46142005 40 42.93 -00 14 52.3    ~BEBM       VNEOCPI52
     P119pJk 1C2020 11 14QPvgv6W@Yp[XDc?kB0w4'KfL(prm6+x@[fpqC6*mrbk['\W83ls_246
     P119pJk 1C2020 11 14XE_aoW._,QrvHp3S=+o/@QkxCYj;Wc1iqJ+XP]*M_:lEb'?mrq6+246
     P119pJk 1C2020 11 14;,I!['fJS7/eglon,J.xB-:I'auxQ':]*2_em%iye^E[,Q_;*'D*246
     P119pJk 1C2020 11 14]`%\7,Pu74V/9F00EOnDdvIoZPLXZ/:EVFO+7k?HU2redacted;n246
     P119pJk  C2020 11 15.36719605 40 26.87 -00 17 46.9    ~BFB7 20.52GVNEOCPI52
     P119pJk  C2020 11 15.39843405 40 26.25 -00 17 53.2    ~BFB7 21.15GVNEOCPI52
     P119pJk  C2020 11 15.41126905 40 26.01 -00 17 54.9    ~BFB7 20.64GVNEOCPI52
     P119pJk  C2020 11 15.45089905 40 25.22 -00 18 03.3    ~BFB7 20.36GVNEOCPI52
     P119pJk  C2020 11 16.35180105 40 08.76 -00 20 54.0    ~BG9M 20.05GVNEOCPI52
     P119pJk  C2020 11 16.37271605 40 08.37 -00 20 57.1    ~BG9M 20.75GVNEOCPI52
     P119pJk  C2020 11 16.38196405 40 08.19 -00 20 58.4    ~BG9M 21.24GVNEOCPI52
     P119pJk KC2020 11 17?Bmnj7YEg(nG3@ZG*xaOTbY_S$X!YEIRgG2.ZWO%QOF1Q*/l3TlW711
     P119pJk KC2020 11 17bqjc*5g]V]^hkyuZ%Ld%7;/-BiPX:@ADU.[1l?T7]-fr28\k)Q*8711
     P119pJk KC2020 11 17wTfR2L.$'p`m%G.=Tt5AgKfpAT:WI^c56wB=H\ddeLYt!H;hs[8O711
     P119pJk KC2020 11 17mi@$lXg\v#Ysu'U_FqKL*yM,:;%O..RURLYD+FZ[$:Tyud8u5=H@E94
     P119pJk KC2020 11 17uL0k,`y:lTlgk#gK_k?mDo17jGT8AKhG5Y-u2g@H`-9ct?@^J-[UE94
     P119pJk KC2020 11 17x\d6WiXY$7fT#huCk[P^y%#Uy%=I;MGw78/Jh^b.8eQ4cBImHr^$E94
     P119pJk bC2020 11 18q]i#x%P-q93A'K]5d#fRfb!Yi$,M\W'?F^rcHI4a6VBbm1pRX6:3711
     P119pJk bC2020 11 18J]7Vdsgkmh*e*mgT((j8$,+52Vgjl\$p?oL^Cn)6\3Uf[B@c$eU(711
     P119pJk bC2020 11 18q:=^p_N=u,3n:RE.\5jIjV*fQGjprAqi%A(.^WnLLp@Xo(:*rN(H711
     P119pJk KC2020 11 18:3p^)L0%w*?\lW:a]@1#x'+meW1n`Y.M)m10W6-Wtng^bNA(9y@*L01
     P119pJk KC2020 11 18s`b*T)!c:1APsR%yl]btYj3Xq.DHXOZGrH\XZWc-/h,d4DL.W=u5L01
     P119pJk KC2020 11 18h)Q2+0;aDbZb1puE'^R68T:6'mxw(f[4RfxHNvdb9OX4t_LORs*FL01
     P119pJk 1C2020 11 18/eH#cEclick_)ZM[GK]OH7;wo)L./,7;%uai`/FI.+RiYh6^Ke`M246
     P119pJk 1C2020 11 18V!K%^Q3m7$.qo``$,0gkbVJ*F/hereVeo]AKbF/93#Q71H7[bx9H246
     P119pJk 1C2020 11 18b9$\d/\M?GvB!eh1XUhcmSe^hM6(ux.iWE-f[Z_)0aK2nw_I?pLh246
     P119pJk KC2020 11 18U;oECkD+4!*AAfUoeAtQHB(alGctQK5!q2F;=ZpH!74Vq]u81M`TL01
     P119pJk KC2020 11 18U!We+phtK_,qT#QJKR;9.fP^$b1?@@pQ_2\0T0[mSforG@*KE7@_L01
     P119pJk KC2020 11 18y,i]1QH*GiJ=td*Wt^A/R8bSXG%W8Ep7,`u=7C!_fKVai`r=E9MQK61
     P119pJk KC2020 11 18Qi*cjcu(ck@o+ofClg\Y8l@\SlyR+L]7pgT`QOi:AccLXOIJ_].RK61
     P119pJk HC2020 11 20.36435 05 38 50.71 -00 32 58.9    ~BK9M       oNEOCP691
     P119pJk HC2020 11 20.37183 05 38 50.57 -00 33 00.2    ~BK9M       oNEOCP691
     P119pJk HC2020 11 21.32853 05 38 30.98 -00 35 44.4    ~BL8q 20.1 RoNEOCP691
     P119pJk HC2020 11 21.33807 05 38 30.82 -00 35 46.1    ~BL8q 20.4 RoNEOCP691
     P119pJk HC2020 11 21.34762 05 38 30.58 -00 35 47.6    ~BL8q 20.4 RoNEOCP691
     P119pJk KC2020 11 21Wj_Ijk/pNFf;'FPJ:K3WQE,UIH:-1F!_hEPQp$w6tQ=t[gi`TF8S587
     P119pJk KC2020 11 21-mWUa@b\vGJAR!70R(*^EYsgZuHLOUs,eZJ_v`[xe#P@n:svE1vX587
     P119pJk KC2020 11 21*=Zd8\jglcM1DQpt8Rr#/C#=pT'*NfG.*_Du'6^.G\`WRp)/%,,\215
     P119pJk KC2020 11 21##j?^tGJAU/[S*jhJkKdc\p3e%lK2O(is!'nH,iW;$1E@!3kF8U0587
     P119pJk KC2020 11 21NLCn+6sqe`8#h,NP]iTn4uo!@nOvUIja_dX$@s=w;##iSaXbUF7%215
     P119pJk KC2020 11 21!WuI,!FbJ6#dT[hN.+LI/O8jJXpo%LTug/A)Y2,w@AfoPqAyZJlQ215
     P119pJk 1C2020 11 21;/;gYt9_N4]0/pBonb74WA+R@@#fqr)Z3p9-/S5wYL-ivO^DlOX#246
     P119pJk 1C2020 11 21pVk8YWcQ:C07%?jnqI@$lp.+;ZM#+EYP]laFwjo2[t,Kh#Nb'uY5246
     P119pJk 1C2020 11 21ZNinUmy!)^Mk_$m)t%dHei7h=SJl29L:)ApPtK0$/7onbw6A;8-*246
     P119pJk 1C2020 11 21OO]SnIGudP4Zj_DnH\cqx%HhGd.n07Jmk?8nZB0nVT-IV\fM4lum246
     P119pJk KC2020 11 22.31673 05 38 10.47 -00 38 31.3    ~BM8b       oNEOCP691
     P119pJk KC2020 11 22.33100 05 38 10.16 -00 38 33.2    ~BM8b       oNEOCP691
     P119pJk KC2020 11 23.45075 05 37 46.33 -00 41 37.6    ~BNBM       oNEOCP691
     P119pJk KC2020 11 23.45802 05 37 46.16 -00 41 38.7    ~BNBM       oNEOCP691
     P119pJk  C2020 11 25.25275705 37 07.24 -00 46 23.2    ~BP6q 20.64GVNEOCPG96
     P119pJk  C2020 11 25.25784905 37 07.14 -00 46 24.1    ~BP6q 20.20GVNEOCPG96
     P119pJk  C2020 11 25.26294805 37 07.02 -00 46 24.9    ~BP6q 20.21GVNEOCPG96
     P119pJk  C2020 11 25.26804605 37 06.93 -00 46 25.9    ~BP6q 19.92GVNEOCPG96
     P119pJk 1C2020 11 259]!.GlX:7Q0)EEK/m[d!6g1rS8aE3=lMG5!:G;Qy[xK`brvLs29^246
     P119pJk 1C2020 11 25^FvEF0=87=`?TM4_n@Ys[AlWGeC:$'`',dDy!;_[4mcIRiqMHk.C246
     P119pJk 1C2020 11 25]?jexplanationb*Ck'JQkHPGdi\x\E!55sb7J[UCKW+V8(!sSRU246
     P119pJk 1C2020 11 25]??Lr/GMx6:Ndcsa4+lDwtyJ',h7ibV;d(JeVVPOZ9A'-g^%.w1Q246
     P119pJk 1C2020 11 2549EWM@B]CD:9NCtAEoI-]Oky.Tvt_etx0j/]eQAbv5!$XOF#yod\246

Station data:
(215) Buchloe  (N48.017293 E10.732800)  Germany.  Observer W. Hasubick.
   0.44-m f/4.6 reflector + CCD.
(246) Klet Observatory-KLENOT  (N48.863293 E14.288100)  Czech Republic.
   1.06-m KLENOT telescope.
(568) Mauna Kea  (N19.826116 W155.472200)  US/Hawaii.
(587) Sormano  (N45.882949 E9.229180)  Italy.  Observers F. Manca, A. Testa.
   Measurer F. Manca. 0.5-m + CCD.
(691) Steward Observatory, Kitt Peak - Spacewatch  (N31.962174 W111.600327)
   US/Arizona.  Observer J. V. Scotti. 0.9-m f/3 reflector + CCD.
(711) McDonald Observatory, Fort Davis  (N30.671481 W104.021500)  US/Texas.
   0.76-m f/3.0 reflector.
(E94) Gisborne (Possum Observatory)  (S38.629922 E177.883310)  New Zealand.
(F51) Pan-STARRS 1, Haleakala  (N20.707235 W156.255910)  US/Hawaii.
   Observers N. Primak, A. Schultz, S. Watters, J. Thiel, T. Goggia. Measurer
   PS1 Science Consortium. 1.8-m Ritchey-Chrétien + CCD.
(G96) Mt. Lemmon Survey  (N32.442754 W110.788720)  US/Arizona.  Observers T.
   A. Pruyne, B. M. Africano, E. J. Christensen, G. A. Farneth, D. C. Fuls,
   A. R. Gibbs, A. D. Grauer, H. Gröller, J. A. Johnson, R. A. Kowalski, S.
   M. Larson, G. J. Leonard, D. Rankin, R. L. Seaman, F. C. Shelly. 1.5-m
   reflector + 10K CCD.
(H06) RAS Observatory, Mayhill  (N32.903325 W105.528700)  US/New
   Mexico.  Observers E. Guido, G. Sostero, V. Gonano, L. Donato.
(I52) Steward Observatory, Mt. Lemmon Station  (N32.442547 W110.788920)
   US/Arizona.  Observers T. A. Pruyne, B. M. Africano, E. J. Christensen, G.
   A. Farneth, D. C. Fuls, A. R. Gibbs, A. D. Grauer, H. Gröller, J. A.
   Johnson, R. A. Kowalski, S. M. Larson, G. J. Leonard, D. Rankin, R. L.
   Seaman, F. C. Shelly. 1.0-m reflector + CCD.
(K61) Rokycany Observatory  (N49.751403 E13.602600)  Czech Republic.
   Observer M. Adamovsky. 0.51-m f/6.8 reflector + CCD.
(L01) Višnjan Observatory, Tičan  (N45.290900 E13.749300)  Croatia.
   Observers K. Korlević, E. Pettarin. Measurer E. Pettarin. 1.0-m f/2.9
   reflector + CCD.
(N51) GROWTH India Telescope, IAO, Hanle  (N32.779244 E78.964610)  India.

Orbital elements:  P119pJk
   Perihelion 2020 Dec 13.598318 +/- 12.9 TT = 14:21:34 (JD 2459197.098318)
Epoch 2020 Nov 25.0 TT = JDT 2459178.5   Sa: 0.5864           AutoNEOCP
M 359.24672765 +/- 0.52             (J2000 ecliptic)
n   0.04050217 +/- 6.11e-5          Peri.  245.18698 +/- 0.9
a   8.39750892 +/- 0.00844          Node   198.37485 +/- 0.030
e   0.2570666 +/- 0.000786          Incl.   23.05131 +/- 0.006
P  24.33                   H 12.4   G  0.15   U  6.5  
q 6.23878958 +/- 0.0016    Q 10.5562282 +/- 0.0171
